Weather History for Huslia, Huslia Airport, AK

Change the Weather History Date:

Sunday, December 8, 2013

  Actual Average Record
Temperature  
Mean Temperature 24 °F -  
Max Temperature 32 °F - - ()
Min Temperature 14 °F - - ()
Degree Days  
Heating Degree Days 42    
Moisture  
Dew Point 20 °F    
Average Humidity 93    
Maximum Humidity 100    
Minimum Humidity 73    
Precipitation  
Precipitation 0.03 in - - ()
Sea Level Pressure  
Sea Level Pressure 30.32 in    
Wind  
Wind Speed 2 mph (WNW)    
Max Wind Speed 6 mph    
Max Gust Speed -    
Visibility 6 miles    
Events      
T = Trace of Precipitation, MM = Missing Value Source: NWS Daily Summary

Daily Weather History Graph

Daily Weather History Graph

Search for Another Location

Airport:

Trip Planner

Search our weather history database for the weather conditions in past years. The results will help you decide how hot, cold, wet, or windy it might be!

Date:

Astronomy

Dec. 08, 2013 Rise Set
Actual Time 11:30 AM AKST 3:04 PM AKST
Civil Twilight 10:01 AM AKST 4:33 PM AKST
Nautical Twilight 8:47 AM AKST 5:47 PM AKST
Astronomical Twilight 7:44 AM AKST 6:50 PM AKST
Moon 1:27 PM AKST (12/8) No Moon Set
Length of Visible Light 6h 32m
Length of Day
3h 34m
Waxing Crescent, 41% of the Moon is Illuminated
Dec 8
Waxing Crescent
Dec 9
First Quarter
Dec 17
Full
Dec 25
Last Quarter
Jan 1
New

Hourly Weather History & Observations

Time (AKST) Temp. Windchill Dew Point Humidity Pressure Visibility Wind Dir Wind Speed Gust Speed Precip Events Conditions
12:16 AM 32.0 °F 26.4 °F 30.2 °F 93% 30.30 in 10.0 mi WNW 5.8 mph - N/A   Clear
12:36 AM 32.0 °F 27.5 °F 28.4 °F 87% 30.31 in 10.0 mi WNW 4.6 mph - N/A   Clear
12:56 AM 30.2 °F 24.3 °F 28.4 °F 93% 30.32 in 10.0 mi WNW 5.8 mph - N/A   Clear
1:16 AM 30.2 °F 26.7 °F 28.4 °F 93% 30.31 in 10.0 mi WNW 3.5 mph - N/A   Clear
1:36 AM 30.2 °F 24.3 °F 28.4 °F 93% 30.32 in 10.0 mi West 5.8 mph - N/A   Clear
1:56 AM 30.2 °F - 28.4 °F 93% 30.33 in 10.0 mi Calm Calm - N/A   Clear
2:16 AM 30.2 °F 25.4 °F 28.4 °F 93% 30.33 in 10.0 mi West 4.6 mph - N/A   Clear
2:36 AM 30.2 °F 26.7 °F 28.4 °F 93% 30.33 in 10.0 mi West 3.5 mph - N/A   Clear
2:56 AM 30.2 °F 26.7 °F 26.6 °F 86% 30.34 in 10.0 mi WNW 3.5 mph - N/A   Clear
3:16 AM 28.4 °F 24.6 °F 26.6 °F 93% 30.34 in 10.0 mi West 3.5 mph - N/A   Clear
3:36 AM 28.4 °F - 26.6 °F 93% 30.34 in 10.0 mi Calm Calm - N/A   Clear
3:56 AM 28.4 °F 24.6 °F 26.6 °F 93% 30.34 in 10.0 mi WNW 3.5 mph - N/A   Clear
4:16 AM 26.6 °F 22.6 °F 24.8 °F 93% 30.35 in 10.0 mi WNW 3.5 mph - N/A   Clear
4:36 AM 26.6 °F 21.2 °F 24.8 °F 93% 30.36 in 10.0 mi NW 4.6 mph - N/A   Clear
4:56 AM 26.6 °F 22.6 °F 24.8 °F 93% 30.36 in 10.0 mi WNW 3.5 mph - N/A   Clear
5:16 AM 26.6 °F 22.6 °F 24.8 °F 93% 30.36 in 10.0 mi WNW 3.5 mph - N/A   Clear
5:36 AM 26.6 °F 21.2 °F 24.8 °F 93% 30.36 in 10.0 mi WNW 4.6 mph - N/A   Clear
5:56 AM 26.6 °F - 24.8 °F 93% 30.36 in 10.0 mi Calm Calm - N/A   Clear
6:16 AM 24.8 °F - 24.8 °F 100% 30.37 in 10.0 mi Calm Calm - N/A   Clear
6:36 AM 24.8 °F - 24.8 °F 100% 30.37 in 10.0 mi Calm Calm - N/A   Clear
6:56 AM 24.8 °F 19.1 °F 21.2 °F 86% 30.36 in 10.0 mi West 4.6 mph - N/A   Clear
7:16 AM 23.0 °F - 21.2 °F 93% 30.35 in 10.0 mi Calm Calm - N/A   Clear
7:36 AM 23.0 °F - 17.6 °F 80% 30.35 in 1.2 mi Calm Calm - N/A   Clear
7:56 AM 24.8 °F - 24.8 °F 100% 30.35 in 5.0 mi Calm Calm - N/A   Clear
8:16 AM 24.8 °F 20.5 °F 19.4 °F 80% 30.35 in 4.0 mi WNW 3.5 mph - N/A   Clear
8:36 AM 21.2 °F 16.4 °F 17.6 °F 86% 30.35 in 5.0 mi West 3.5 mph - N/A   Partly Cloudy
8:56 AM 21.2 °F - 21.2 °F 100% 30.35 in 10.0 mi Calm Calm - N/A   Clear
9:16 AM 19.4 °F 14.3 °F 15.8 °F 86% 30.35 in 10.0 mi SSE 3.5 mph - N/A   Clear
9:36 AM 19.4 °F 12.8 °F 19.4 °F 100% 30.35 in 0.8 mi SSW 4.6 mph - N/A   Unknown
9:56 AM 17.6 °F - 10.4 °F 73% 30.34 in 7.0 mi Calm Calm - N/A   Clear
10:16 AM 19.4 °F 14.3 °F 17.6 °F 93% 30.34 in 10.0 mi WSW 3.5 mph - N/A   Clear
10:36 AM 21.2 °F 16.4 °F 19.4 °F 93% 30.35 in 10.0 mi WSW 3.5 mph - N/A   Clear
10:56 AM 19.4 °F 12.8 °F 17.6 °F 93% 30.34 in 10.0 mi WNW 4.6 mph - N/A   Clear
11:16 AM 21.2 °F - 17.6 °F 86% 30.34 in 10.0 mi Calm Calm - N/A   Clear
11:36 AM 17.6 °F - 17.6 °F 100% 30.34 in 6.0 mi Calm Calm - N/A   Partly Cloudy
11:56 AM 19.4 °F - 14.0 °F 80% 30.34 in 0.5 mi Calm Calm - N/A   Unknown
12:16 PM 19.4 °F 14.3 °F 15.8 °F 86% 30.33 in 0.2 mi NNW 3.5 mph - N/A   Overcast
12:36 PM 17.6 °F 12.3 °F 15.8 °F 93% 30.34 in 0.5 mi NNW 3.5 mph - N/A   Overcast
12:56 PM 17.6 °F - 17.6 °F 100% 30.33 in 4.0 mi Calm Calm - N/A   Overcast
1:16 PM 19.4 °F - 17.6 °F 93% 30.33 in 0.2 mi Calm Calm - N/A   Overcast
1:36 PM 19.4 °F - 19.4 °F 100% 30.32 in 0.2 mi Calm Calm - N/A   Overcast
1:56 PM 19.4 °F - 17.6 °F 93% 30.32 in 0.2 mi Calm Calm - N/A   Overcast
2:16 PM 21.2 °F - 19.4 °F 93% 30.31 in 0.2 mi Calm Calm - N/A   Overcast
2:36 PM 19.4 °F - 19.4 °F 100% 30.31 in 0.2 mi Calm Calm - N/A   Overcast
2:56 PM 19.4 °F - 19.4 °F 100% 30.31 in 0.2 mi Calm Calm - N/A   Overcast
3:16 PM 19.4 °F - 17.6 °F 93% 30.30 in 0.2 mi Calm Calm - N/A   Overcast
3:36 PM 17.6 °F - 17.6 °F 100% 30.29 in 0.2 mi Calm Calm - N/A   Overcast
3:56 PM 17.6 °F - 15.8 °F 93% 30.29 in 0.2 mi Calm Calm - N/A   Overcast
4:16 PM 17.6 °F - 15.8 °F 93% 30.29 in 0.8 mi Calm Calm - N/A   Overcast
4:36 PM 17.6 °F - 17.6 °F 100% 30.29 in 1.2 mi Calm Calm - N/A   Overcast
4:56 PM 17.6 °F - 17.6 °F 100% 30.29 in 1.5 mi Calm Calm - N/A   Overcast
5:16 PM 17.6 °F - 15.8 °F 93% 30.29 in 5.0 mi Calm Calm - N/A   Overcast
5:36 PM 19.4 °F - 17.6 °F 93% 30.29 in 9.0 mi Calm Calm - N/A   Overcast
5:56 PM 19.4 °F - 17.6 °F 93% 30.29 in 10.0 mi Calm Calm - N/A   Overcast
6:16 PM 19.4 °F - 17.6 °F 93% 30.29 in 10.0 mi Calm Calm - N/A   Overcast
6:36 PM 19.4 °F - 17.6 °F 93% 30.28 in 10.0 mi Calm Calm - N/A   Overcast
6:56 PM 17.6 °F - 15.8 °F 93% 30.29 in 10.0 mi Calm Calm - N/A   Overcast
7:16 PM 17.6 °F - 17.6 °F 100% 30.28 in 10.0 mi Calm Calm - N/A   Overcast
7:36 PM 19.4 °F - 17.6 °F 93% 30.28 in 2.5 mi Calm Calm - N/A   Overcast
7:56 PM 19.4 °F - 17.6 °F 93% 30.28 in 0.8 mi Calm Calm - N/A   Overcast
8:16 PM 19.4 °F - 17.6 °F 93% 30.29 in 0.5 mi Calm Calm - N/A   Overcast
8:36 PM 19.4 °F - 17.6 °F 93% 30.29 in 0.5 mi Calm Calm - N/A   Overcast
8:56 PM 19.4 °F - 17.6 °F 93% 30.29 in 0.5 mi Calm Calm - N/A   Overcast
9:16 PM 19.4 °F - 17.6 °F 93% 30.29 in 0.5 mi Calm Calm - N/A   Overcast
9:36 PM 19.4 °F - 17.6 °F 93% 30.28 in 0.8 mi Calm Calm - N/A   Overcast
9:56 PM 17.6 °F - 15.8 °F 93% 30.28 in 0.8 mi Calm Calm - N/A   Overcast
10:16 PM 17.6 °F - 15.8 °F 93% 30.28 in 0.2 mi Calm Calm - N/A   Overcast
10:36 PM 17.6 °F - 15.8 °F 93% 30.27 in 0.5 mi Calm Calm - N/A   Overcast
10:56 PM 17.6 °F - 15.8 °F 93% 30.27 in 0.2 mi Calm Calm - N/A   Overcast
11:16 PM 15.8 °F - 15.8 °F 100% 30.27 in 0.5 mi Calm Calm - N/A   Overcast
11:36 PM 15.8 °F - 12.2 °F 86% 30.27 in 0.8 mi Calm Calm - N/A   Overcast
11:56 PM 14.0 °F - 12.2 °F 93% 30.27 in 1.0 mi Calm Calm - N/A   Mostly Cloudy